Time,TemperatureF,DewpointF,PressureIn,WindDirection,WindDirectionDegrees,WindSpeedMPH,WindSpeedGustMPH,Humidity,HourlyPrecipIn,Conditions,Clouds,dailyrainin,SoftwareType,DateUTC
2013-04-09 00:03:00,66.0,48.0,-100.00,WNW,292,2.0,14.0,54,0.00,,,-99.99,,2013-04-09 04:03:00,
2013-04-09 00:13:00,66.0,48.0,-100.00,West,272,3.0,14.0,55,0.00,,,-99.99,,2013-04-09 04:13:00,
2013-04-09 00:23:00,66.0,48.0,-100.00,WNW,282,4.0,14.0,55,0.00,,,-99.99,,2013-04-09 04:23:00,
2013-04-09 00:32:00,65.0,48.0,-100.00,West,276,2.0,14.0,56,0.00,,,-99.99,,2013-04-09 04:32:00,
2013-04-09 00:43:00,65.0,48.0,-100.00,West,276,2.0,14.0,56,0.00,,,-99.99,,2013-04-09 04:43:00,
2013-04-09 00:52:00,65.0,48.0,-100.00,West,276,2.0,14.0,56,0.00,,,-99.99,,2013-04-09 04:52:00,
2013-04-09 01:02:00,65.0,50.0,-100.00,SW,225,1.0,14.0,59,0.00,,,-99.99,,2013-04-09 05:02:00,
2013-04-09 01:12:00,65.0,50.0,-100.00,SSW,208,2.0,14.0,59,0.00,,,-99.99,,2013-04-09 05:12:00,
2013-04-09 01:22:00,66.0,52.0,-100.00,NW,317,2.0,14.0,60,0.00,,,-99.99,,2013-04-09 05:22:00,
2013-04-09 01:32:00,65.0,48.0,-100.00,WSW,237,3.0,14.0,59,0.00,,,-99.99,,2013-04-09 05:32:00,
2013-04-09 01:43:00,66.0,52.0,-100.00,West,276,2.0,14.0,60,0.00,,,-99.99,,2013-04-09 05:43:00,
2013-04-09 01:52:00,64.0,48.0,-100.00,NW,314,2.0,14.0,60,0.00,,,-99.99,,2013-04-09 05:52:00,
2013-04-09 02:02:00,64.0,50.0,-100.00,WNW,286,1.0,14.0,60,0.00,,,-99.99,,2013-04-09 06:02:00,
2013-04-09 02:12:00,64.0,50.0,-100.00,West,271,2.0,14.0,62,0.00,,,-99.99,,2013-04-09 06:12:00,
2013-04-09 02:22:00,64.0,50.0,-100.00,WNW,297,2.0,14.0,62,0.00,,,-99.99,,2013-04-09 06:22:00,
2013-04-09 02:32:00,65.0,52.0,-100.00,WNW,285,2.0,14.0,63,0.00,,,-99.99,,2013-04-09 06:32:00,
2013-04-09 02:42:00,65.0,52.0,-100.00,SSW,201,2.0,14.0,63,0.00,,,-99.99,,2013-04-09 06:42:00,
2013-04-09 02:52:00,63.0,50.0,-100.00,West,278,2.0,14.0,63,0.00,,,-99.99,,2013-04-09 06:52:00,
2013-04-09 03:02:00,66.0,52.0,-100.00,WSW,252,2.0,14.0,64,0.00,,,-99.99,,2013-04-09 07:02:00,
2013-04-09 03:13:00,64.0,50.0,-100.00,NW,306,1.0,14.0,63,0.00,,,-99.99,,2013-04-09 07:13:00,
2013-04-09 03:22:00,63.0,50.0,-100.00,WNW,282,1.0,14.0,64,0.00,,,-99.99,,2013-04-09 07:22:00,
2013-04-09 03:32:00,63.0,50.0,-100.00,WSW,247,1.0,14.0,64,0.00,,,-99.99,,2013-04-09 07:32:00,
2013-04-09 03:42:00,63.0,50.0,-100.00,WNW,292,1.0,14.0,64,0.00,,,-99.99,,2013-04-09 07:42:00,
2013-04-09 03:52:00,64.0,52.0,-100.00,NW,321,0.0,14.0,66,0.00,,,-99.99,,2013-04-09 07:52:00,
2013-04-09 04:03:00,65.0,52.0,-100.00,West,273,1.0,14.0,67,0.00,,,-99.99,,2013-04-09 08:03:00,
2013-04-09 04:13:00,64.0,52.0,-100.00,WNW,292,0.0,14.0,67,0.00,,,-99.99,,2013-04-09 08:13:00,
2013-04-09 04:22:00,64.0,52.0,-100.00,WNW,285,1.0,14.0,67,0.00,,,-99.99,,2013-04-09 08:22:00,
2013-04-09 04:32:00,64.0,52.0,-100.00,NNW,330,0.0,14.0,67,0.00,,,-99.99,,2013-04-09 08:32:00,
2013-04-09 04:42:00,62.0,50.0,-100.00,WNW,288,0.0,14.0,67,0.00,,,-99.99,,2013-04-09 08:42:00,
2013-04-09 04:52:00,61.0,50.0,-100.00,SSW,210,1.0,14.0,67,0.00,,,-99.99,,2013-04-09 08:52:00,
2013-04-09 05:02:00,61.0,50.0,-100.00,SSW,208,0.0,0.0,69,0.00,,,-99.99,,2013-04-09 09:02:00,
2013-04-09 05:12:00,60.0,50.0,-100.00,WNW,302,0.0,0.0,71,0.00,,,-99.99,,2013-04-09 09:12:00,
2013-04-09 05:22:00,59.0,50.0,-100.00,ENE,70,0.0,0.0,75,0.00,,,-99.99,,2013-04-09 09:22:00,
2013-04-09 05:33:00,58.0,50.0,-100.00,ENE,72,0.0,0.0,76,0.00,,,-99.99,,2013-04-09 09:33:00,
2013-04-09 05:43:00,59.0,52.0,-100.00,South,173,0.0,0.0,77,0.00,,,-99.99,,2013-04-09 09:43:00,
2013-04-09 05:52:00,57.0,48.0,-100.00,ENE,69,0.0,0.0,78,0.00,,,-99.99,,2013-04-09 09:52:00,
2013-04-09 06:04:00,57.0,50.0,-100.00,East,81,0.0,1.0,77,0.00,,,-99.99,,2013-04-09 10:04:00,
2013-04-09 06:13:00,57.0,48.0,-100.00,SE,144,0.0,1.0,78,0.00,,,-99.99,,2013-04-09 10:13:00,
2013-04-09 06:24:00,57.0,50.0,-100.00,NE,46,0.0,1.0,78,0.00,,,-99.99,,2013-04-09 10:24:00,
2013-04-09 06:33:00,56.0,50.0,-100.00,North,352,0.0,1.0,82,0.00,,,-99.99,,2013-04-09 10:33:00,
2013-04-09 06:43:00,58.0,50.0,-100.00,North,4,0.0,1.0,77,0.00,,,-99.99,,2013-04-09 10:43:00,
2013-04-09 06:52:00,57.0,50.0,-100.00,East,93,0.0,1.0,78,0.00,,,-99.99,,2013-04-09 10:52:00,
2013-04-09 07:02:00,57.0,50.0,-100.00,South,184,1.0,1.0,80,0.00,,,-99.99,,2013-04-09 11:02:00,
2013-04-09 07:12:00,57.0,48.0,-100.00,South,173,1.0,1.0,76,0.00,,,-99.99,,2013-04-09 11:12:00,
2013-04-09 07:22:00,55.0,48.0,-100.00,ESE,120,0.0,1.0,80,0.00,,,-99.99,,2013-04-09 11:22:00,
2013-04-09 07:32:00,54.0,48.0,-100.00,ESE,121,1.0,2.0,84,0.00,,,-99.99,,2013-04-09 11:32:00,
2013-04-09 07:42:00,53.0,48.0,-100.00,SSE,151,0.0,2.0,86,0.00,,,-99.99,,2013-04-09 11:42:00,
2013-04-09 07:52:00,53.0,48.0,-100.00,SSE,156,1.0,2.0,86,0.00,,,-99.99,,2013-04-09 11:52:00,
2013-04-09 08:02:00,54.0,48.0,-100.00,ESE,103,1.0,2.0,85,0.00,,,-99.99,,2013-04-09 12:02:00,
2013-04-09 08:12:00,55.0,48.0,-100.00,SSE,152,1.0,2.0,82,0.00,,,-99.99,,2013-04-09 12:12:00,
2013-04-09 08:22:00,55.0,48.0,-100.00,East,87,0.0,2.0,82,0.00,,,-99.99,,2013-04-09 12:22:00,
2013-04-09 08:32:00,58.0,52.0,-100.00,East,87,0.0,2.0,81,0.00,,,-99.99,,2013-04-09 12:32:00,
2013-04-09 08:42:00,58.0,50.0,-100.00,ESE,105,0.0,2.0,76,0.00,,,-99.99,,2013-04-09 12:42:00,
2013-04-09 08:53:00,60.0,50.0,-100.00,ESE,114,0.0,2.0,72,0.00,,,-99.99,,2013-04-09 12:53:00,
2013-04-09 09:03:00,62.0,50.0,-100.00,East,101,0.0,2.0,68,0.00,,,-99.99,,2013-04-09 13:03:00,
2013-04-09 09:13:00,61.0,48.0,-100.00,East,81,1.0,2.0,67,0.00,,,-99.99,,2013-04-09 13:13:00,
2013-04-09 09:23:00,61.0,48.0,-100.00,East,84,1.0,2.0,64,0.00,,,-99.99,,2013-04-09 13:23:00,
2013-04-09 09:33:00,62.0,48.0,-100.00,ESE,105,2.0,2.0,64,0.00,,,-99.99,,2013-04-09 13:33:00,
2013-04-09 09:43:00,62.0,50.0,-100.00,ENE,72,2.0,2.0,66,0.00,,,-99.99,,2013-04-09 13:43:00,
2013-04-09 09:52:00,64.0,50.0,-100.00,East,91,1.0,2.0,62,0.00,,,-99.99,,2013-04-09 13:52:00,
2013-04-09 10:03:00,65.0,50.0,-100.00,SE,141,2.0,2.0,60,0.00,,,-99.99,,2013-04-09 14:03:00,
2013-04-09 10:12:00,64.0,50.0,-100.00,NE,56,2.0,2.0,62,0.00,,,-99.99,,2013-04-09 14:12:00,
2013-04-09 10:22:00,65.0,50.0,-100.00,SSE,160,2.0,2.0,60,0.00,,,-99.99,,2013-04-09 14:22:00,
2013-04-09 10:33:00,66.0,50.0,-100.00,ESE,120,1.0,2.0,59,0.00,,,-99.99,,2013-04-09 14:33:00,
2013-04-09 10:43:00,67.0,50.0,-100.00,ESE,103,1.0,2.0,56,0.00,,,-99.99,,2013-04-09 14:43:00,
2013-04-09 10:52:00,67.0,52.0,-100.00,South,184,3.0,4.0,60,0.00,,,-99.99,,2013-04-09 14:52:00,
2013-04-09 11:02:00,67.0,50.0,-100.00,South,184,4.0,6.0,59,0.00,,,-99.99,,2013-04-09 15:02:00,
2013-04-09 11:13:00,67.0,52.0,-100.00,SSW,199,3.0,6.0,59,0.00,,,-99.99,,2013-04-09 15:13:00,
2013-04-09 11:23:00,69.0,52.0,-100.00,ESE,114,2.0,6.0,54,0.00,,,-99.99,,2013-04-09 15:23:00,
2013-04-09 11:34:00,71.0,52.0,-100.00,SE,128,2.0,6.0,55,0.00,,,-99.99,,2013-04-09 15:34:00,
2013-04-09 11:43:00,72.0,52.0,-100.00,SSW,194,2.0,6.0,53,0.00,,,-99.99,,2013-04-09 15:43:00,
2013-04-09 11:53:00,71.0,54.0,-100.00,SW,216,6.0,8.0,55,0.00,,,-99.99,,2013-04-09 15:53:00,
2013-04-09 12:03:00,70.0,50.0,-100.00,SSW,200,6.0,8.0,53,0.00,,,-99.99,,2013-04-09 16:03:00,
2013-04-09 12:13:00,69.0,50.0,-100.00,South,177,6.0,8.0,54,0.00,,,-99.99,,2013-04-09 16:13:00,
2013-04-09 12:23:00,71.0,52.0,-100.00,SSW,210,7.0,10.0,53,0.00,,,-99.99,,2013-04-09 16:23:00,
2013-04-09 12:33:00,71.0,50.0,-100.00,SSW,213,5.0,10.0,51,0.00,,,-99.99,,2013-04-09 16:33:00,
2013-04-09 12:42:00,72.0,52.0,-100.00,ESE,117,4.0,10.0,50,0.00,,,-99.99,,2013-04-09 16:42:00,
2013-04-09 12:53:00,72.0,50.0,-100.00,South,183,6.0,10.0,47,0.00,,,-99.99,,2013-04-09 16:53:00,
2013-04-09 13:02:00,73.0,52.0,-100.00,SE,141,4.0,10.0,49,0.00,,,-99.99,,2013-04-09 17:02:00,
2013-04-09 13:13:00,74.0,54.0,-100.00,South,184,7.0,12.0,49,0.00,,,-99.99,,2013-04-09 17:13:00,
2013-04-09 13:23:00,74.0,50.0,-100.00,South,184,6.0,12.0,45,0.00,,,-99.99,,2013-04-09 17:23:00,
2013-04-09 13:32:00,75.0,50.0,-100.00,West,272,4.0,12.0,44,0.00,,,-99.99,,2013-04-09 17:32:00,
2013-04-09 13:43:00,74.0,50.0,-100.00,South,176,8.0,12.0,45,0.00,,,-99.99,,2013-04-09 17:43:00,
2013-04-09 13:53:00,75.0,50.0,-100.00,SSE,148,7.0,12.0,42,0.00,,,-99.99,,2013-04-09 17:53:00,
2013-04-09 14:02:00,77.0,50.0,-100.00,South,186,7.0,12.0,40,0.00,,,-99.99,,2013-04-09 18:02:00,
2013-04-09 14:13:00,76.0,50.0,-100.00,South,175,7.0,12.0,42,0.00,,,-99.99,,2013-04-09 18:13:00,
2013-04-09 14:23:00,77.0,50.0,-100.00,SSW,210,5.0,12.0,40,0.00,,,-99.99,,2013-04-09 18:23:00,
2013-04-09 14:33:00,77.0,48.0,-100.00,WSW,249,6.0,12.0,38,0.00,,,-99.99,,2013-04-09 18:33:00,
2013-04-09 14:43:00,77.0,50.0,-100.00,NNW,336,5.0,12.0,40,0.00,,,-99.99,,2013-04-09 18:43:00,
2013-04-09 14:52:00,77.0,50.0,-100.00,NNW,336,4.0,12.0,40,0.00,,,-99.99,,2013-04-09 18:52:00,
2013-04-09 15:03:00,77.0,48.0,-100.00,West,268,4.0,12.0,38,0.00,,,-99.99,,2013-04-09 19:03:00,
2013-04-09 15:12:00,77.0,48.0,-100.00,West,268,4.0,12.0,38,0.00,,,-99.99,,2013-04-09 19:12:00,
2013-04-09 15:23:00,77.0,48.0,-100.00,West,268,4.0,12.0,38,0.00,,,-99.99,,2013-04-09 19:23:00,
2013-04-09 15:32:00,79.0,48.0,-100.00,WSW,247,6.0,12.0,36,0.00,,,-99.99,,2013-04-09 19:32:00,
2013-04-09 15:42:00,79.0,48.0,-100.00,WSW,247,6.0,12.0,36,0.00,,,-99.99,,2013-04-09 19:42:00,
2013-04-09 15:52:00,78.0,48.0,-100.00,South,169,4.0,12.0,37,0.00,,,-99.99,,2013-04-09 19:52:00,
2013-04-09 16:03:00,79.0,46.0,-100.00,SW,232,4.0,12.0,34,0.00,,,-99.99,,2013-04-09 20:03:00,
2013-04-09 16:12:00,78.0,48.0,-100.00,ESE,120,5.0,12.0,37,0.00,,,-99.99,,2013-04-09 20:12:00,
2013-04-09 16:23:00,80.0,50.0,-100.00,WNW,288,5.0,12.0,36,0.00,,,-99.99,,2013-04-09 20:23:00,
2013-04-09 16:34:00,80.0,48.0,-100.00,West,268,6.0,14.0,34,0.00,,,-99.99,,2013-04-09 20:34:00,
2013-04-09 16:43:00,80.0,48.0,-100.00,SW,227,4.0,14.0,34,0.00,,,-99.99,,2013-04-09 20:43:00,
2013-04-09 16:52:00,79.0,48.0,-100.00,NW,317,5.0,14.0,36,0.00,,,-99.99,,2013-04-09 20:52:00,
2013-04-09 17:02:00,79.0,50.0,-100.00,SSW,194,5.0,14.0,37,0.00,,,-99.99,,2013-04-09 21:02:00,
2013-04-09 17:14:00,80.0,50.0,-100.00,SSW,204,6.0,14.0,36,0.00,,,-99.99,,2013-04-09 21:14:00,
2013-04-09 17:23:00,80.0,50.0,-100.00,SSW,204,6.0,14.0,36,0.00,,,-99.99,,2013-04-09 21:23:00,
2013-04-09 17:33:00,79.0,50.0,-100.00,NW,319,5.0,14.0,37,0.00,,,-99.99,,2013-04-09 21:33:00,
2013-04-09 17:42:00,79.0,50.0,-100.00,NW,319,5.0,14.0,37,0.00,,,-99.99,,2013-04-09 21:42:00,
2013-04-09 17:52:00,81.0,48.0,-100.00,NW,323,5.0,14.0,33,0.00,,,-99.99,,2013-04-09 21:52:00,
2013-04-09 18:03:00,81.0,48.0,-100.00,WNW,286,3.0,14.0,33,0.00,,,-99.99,,2013-04-09 22:03:00,
2013-04-09 18:13:00,80.0,50.0,-100.00,WSW,258,5.0,14.0,36,0.00,,,-99.99,,2013-04-09 22:13:00,
2013-04-09 18:23:00,80.0,48.0,-100.00,SSW,192,4.0,14.0,34,0.00,,,-99.99,,2013-04-09 22:23:00,
2013-04-09 18:33:00,80.0,48.0,-100.00,SW,228,6.0,14.0,34,0.00,,,-99.99,,2013-04-09 22:33:00,
2013-04-09 18:42:00,80.0,48.0,-100.00,SW,231,4.0,14.0,34,0.00,,,-99.99,,2013-04-09 22:42:00,
2013-04-09 18:53:00,80.0,46.0,-100.00,SW,225,4.0,14.0,33,0.00,,,-99.99,,2013-04-09 22:53:00,
2013-04-09 19:03:00,80.0,48.0,-100.00,South,183,3.0,14.0,34,0.00,,,-99.99,,2013-04-09 23:03:00,
2013-04-09 19:13:00,80.0,48.0,-100.00,WSW,248,6.0,14.0,34,0.00,,,-99.99,,2013-04-09 23:13:00,
2013-04-09 19:23:00,80.0,48.0,-100.00,SW,234,4.0,14.0,34,0.00,,,-99.99,,2013-04-09 23:23:00,
2013-04-09 19:32:00,78.0,48.0,-100.00,West,264,3.0,14.0,36,0.00,,,-99.99,,2013-04-09 23:32:00,
2013-04-09 19:42:00,78.0,48.0,-100.00,South,172,4.0,14.0,37,0.00,,,-99.99,,2013-04-09 23:42:00,
2013-04-09 19:52:00,78.0,48.0,-100.00,SE,125,2.0,14.0,37,0.00,,,-99.99,,2013-04-09 23:52:00,
2013-04-09 20:03:00,78.0,48.0,-100.00,SSW,213,3.0,14.0,37,0.00,,,-99.99,,2013-04-10 00:03:00,
2013-04-09 20:13:00,78.0,48.0,-100.00,SSW,213,3.0,14.0,37,0.00,,,-99.99,,2013-04-10 00:13:00,
2013-04-09 20:23:00,77.0,48.0,-100.00,West,261,1.0,14.0,38,0.00,,,-99.99,,2013-04-10 00:23:00,
2013-04-09 20:33:00,76.0,48.0,-100.00,South,189,1.0,14.0,38,0.00,,,-99.99,,2013-04-10 00:33:00,
2013-04-09 20:42:00,76.0,46.0,-100.00,SW,224,1.0,14.0,38,0.00,,,-99.99,,2013-04-10 00:42:00,
2013-04-09 20:52:00,76.0,48.0,-100.00,WSW,240,3.0,14.0,38,0.00,,,-99.99,,2013-04-10 00:52:00,
2013-04-09 21:02:00,75.0,46.0,-100.00,NW,309,2.0,14.0,38,0.00,,,-99.99,,2013-04-10 01:02:00,
2013-04-09 21:12:00,75.0,46.0,-100.00,SW,235,2.0,14.0,38,0.00,,,-99.99,,2013-04-10 01:12:00,
2013-04-09 21:23:00,74.0,48.0,-100.00,SSW,199,1.0,14.0,40,0.00,,,-99.99,,2013-04-10 01:23:00,
2013-04-09 21:32:00,75.0,48.0,-100.00,WNW,296,1.0,14.0,40,0.00,,,-99.99,,2013-04-10 01:32:00,
2013-04-09 21:43:00,75.0,48.0,-100.00,South,189,2.0,14.0,40,0.00,,,-99.99,,2013-04-10 01:43:00,
2013-04-09 21:52:00,74.0,48.0,-100.00,West,266,3.0,14.0,41,0.00,,,-99.99,,2013-04-10 01:52:00,
2013-04-09 22:02:00,73.0,46.0,-100.00,SSE,156,2.0,14.0,41,0.00,,,-99.99,,2013-04-10 02:02:00,
2013-04-09 22:13:00,74.0,48.0,-100.00,South,169,2.0,14.0,41,0.00,,,-99.99,,2013-04-10 02:13:00,
2013-04-09 22:22:00,73.0,48.0,-100.00,SW,235,3.0,14.0,42,0.00,,,-99.99,,2013-04-10 02:22:00,
2013-04-09 22:33:00,73.0,46.0,-100.00,WSW,241,3.0,14.0,42,0.00,,,-99.99,,2013-04-10 02:33:00,
2013-04-09 22:43:00,73.0,48.0,-100.00,WNW,299,5.0,14.0,42,0.00,,,-99.99,,2013-04-10 02:43:00,
2013-04-09 22:52:00,73.0,48.0,-100.00,SSE,158,4.0,14.0,44,0.00,,,-99.99,,2013-04-10 02:52:00,
2013-04-09 23:03:00,73.0,48.0,-100.00,NNE,21,4.0,14.0,44,0.00,,,-99.99,,2013-04-10 03:03:00,
2013-04-09 23:12:00,73.0,48.0,-100.00,WNW,282,4.0,14.0,44,0.00,,,-99.99,,2013-04-10 03:12:00,
2013-04-09 23:22:00,73.0,48.0,-100.00,WNW,290,2.0,14.0,45,0.00,,,-99.99,,2013-04-10 03:22:00,
2013-04-09 23:33:00,72.0,48.0,-100.00,West,279,2.0,14.0,45,0.00,,,-99.99,,2013-04-10 03:33:00,
2013-04-09 23:43:00,72.0,48.0,-100.00,South,190,2.0,14.0,45,0.00,,,-99.99,,2013-04-10 03:43:00,
2013-04-09 23:52:00,72.0,48.0,-100.00,West,276,2.0,14.0,46,0.00,,,-99.99,,2013-04-10 03:52:00,